TimePST,TemperatureF,Dew PointF,Humidity,Sea Level PressureIn,VisibilityMPH,Wind Direction,Wind SpeedMPH,Gust SpeedMPH,PrecipitationIn,Events,Conditions,WindDirDegrees,DateUTC
12:00 AM,39.4,34.2,82,30.22,-9999.0,SSE,13.8,25.3,N/A,,Unknown,150,2013-01-01 08:00:00
1:00 AM,39.4,34.7,83,30.23,-9999.0,SSE,11.5,18.4,N/A,,Unknown,150,2013-01-01 09:00:00
2:00 AM,39.6,35.4,85,30.21,-9999.0,SSE,13.8,20.7,N/A,,Unknown,150,2013-01-01 10:00:00
3:00 AM,40.1,36.7,88,30.20,-9999.0,SSE,15.0,27.6,N/A,,Unknown,150,2013-01-01 11:00:00
4:00 AM,41,37,81,30.18,,SSE,13.8,,,,,160,2013-01-01 12:00:00
4:00 AM,40.6,37.2,88,30.18,-9999.0,SSE,13.8,25.3,N/A,,Unknown,160,2013-01-01 12:00:00
5:00 AM,40.8,37.4,88,30.14,-9999.0,SSE,15.0,27.6,N/A,,Unknown,150,2013-01-01 13:00:00
6:00 AM,41.7,37.9,86,30.12,-9999.0,SSE,18.4,33.4,N/A,,Unknown,150,2013-01-01 14:00:00
7:00 AM,42.3,37.8,84,30.06,-9999.0,SSE,20.7,36.8,N/A,,Unknown,150,2013-01-01 15:00:00
8:00 AM,42.6,37.9,83,30.03,-9999.0,SE,18.4,36.8,N/A,,Unknown,140,2013-01-01 16:00:00
9:00 AM,42.6,37.0,81,30.04,-9999.0,SE,16.1,28.8,N/A,,Unknown,140,2013-01-01 17:00:00
10:00 AM,43,36,69,30.02,,SSE,17.3,,,,,150,2013-01-01 18:00:00
10:00 AM,42.8,36.3,78,30.02,-9999.0,SSE,17.3,34.5,N/A,,Unknown,150,2013-01-01 18:00:00
11:00 AM,43.0,36.7,78,29.97,-9999.0,SSE,18.4,34.5,N/A,,Unknown,150,2013-01-01 19:00:00
12:00 PM,43.7,37.0,77,29.98,-9999.0,SSE,18.4,34.5,N/A,,Unknown,150,2013-01-01 20:00:00
1:00 PM,44.2,37.8,78,29.96,-9999.0,SE,16.1,26.5,N/A,,Unknown,140,2013-01-01 21:00:00
2:00 PM,44.6,38.1,78,29.93,-9999.0,SSE,17.3,28.8,N/A,,Unknown,150,2013-01-01 22:00:00
3:00 PM,44.6,38.1,78,29.91,-9999.0,SSE,15.0,26.5,N/A,,Unknown,150,2013-01-01 23:00:00
4:00 PM,43,39,82,29.92,,SSE,9.2,,,,,150,2013-01-02 00:00:00
4:00 PM,43.2,39.4,86,29.92,-9999.0,SSE,9.2,-,N/A,,Unknown,150,2013-01-02 00:00:00
5:00 PM,42.1,39.6,91,29.91,-9999.0,SE,9.2,-,N/A,,Unknown,140,2013-01-02 01:00:00
6:00 PM,42.1,40.1,93,29.88,-9999.0,SSE,10.4,18.4,N/A,,Unknown,150,2013-01-02 02:00:00
7:00 PM,42.1,40.1,93,29.88,-9999.0,SSE,11.5,19.6,N/A,,Unknown,150,2013-01-02 03:00:00
8:00 PM,42.3,40.5,93,29.87,-9999.0,SSE,8.1,18.4,N/A,,Unknown,160,2013-01-02 04:00:00
9:00 PM,42.3,40.5,93,29.87,-9999.0,SSE,6.9,-,N/A,,Unknown,150,2013-01-02 05:00:00
10:00 PM,42,40,92,29.86,,SSE,8.1,,,,,150,2013-01-02 06:00:00
10:00 PM,42.1,40.5,94,29.86,-9999.0,SSE,8.1,-,N/A,,Unknown,150,2013-01-02 06:00:00
11:00 PM,41.9,40.3,94,29.85,-9999.0,SSE,6.9,-,N/A,,Unknown,150,2013-01-02 07:00:00